Time,TemperatureF,DewpointF,PressureIn,WindDirection,WindDirectionDegrees,WindSpeedMPH,WindSpeedGustMPH,Humidity,HourlyPrecipIn,Conditions,Clouds,dailyrainin,SoftwareType,DateUTC
2013-05-23 00:05:00,39.2,15.8,29.79,North,-999,0.0,0.0,38,0.00,,,-99.99,FreeWX 2.04,2013-05-23 06:05:00,
2013-05-23 00:15:00,39.2,12.6,29.79,North,-999,0.0,0.0,33,0.00,,,-99.99,FreeWX 2.04,2013-05-23 06:15:00,
2013-05-23 00:25:00,39.2,11.8,29.79,North,-999,0.0,0.0,32,0.00,,,-99.99,FreeWX 2.04,2013-05-23 06:25:00,
2013-05-23 00:35:00,39.4,12.0,29.79,North,-999,0.0,4.5,32,0.00,,,-99.99,FreeWX 2.04,2013-05-23 06:35:00,
2013-05-23 00:45:00,38.7,14.7,29.79,ESE,104,1.0,5.4,37,0.00,,,-99.99,FreeWX 2.04,2013-05-23 06:45:00,
2013-05-23 00:55:00,38.3,16.2,29.79,North,-999,0.0,0.0,40,0.00,,,-99.99,FreeWX 2.04,2013-05-23 06:55:00,
2013-05-23 01:05:00,38.3,16.2,29.79,North,-999,0.0,0.0,40,0.00,,,-99.99,FreeWX 2.04,2013-05-23 07:05:00,
2013-05-23 01:15:00,38.5,16.3,29.79,North,-999,0.0,0.0,40,0.00,,,-99.99,FreeWX 2.04,2013-05-23 07:15:00,
2013-05-23 01:25:00,37.9,16.3,29.76,North,-999,0.0,0.0,41,0.00,,,-99.99,FreeWX 2.04,2013-05-23 07:25:00,
2013-05-23 01:35:00,37.6,16.0,29.79,North,-999,0.0,0.0,41,0.00,,,-99.99,FreeWX 2.04,2013-05-23 07:35:00,
2013-05-23 01:45:00,37.9,13.5,29.79,North,-999,0.0,2.7,36,0.00,,,-99.99,FreeWX 2.04,2013-05-23 07:45:00,
2013-05-23 01:55:00,37.9,15.3,29.76,North,-999,0.0,0.0,39,0.00,,,-99.99,FreeWX 2.04,2013-05-23 07:55:00,
2013-05-23 02:06:00,37.2,15.1,29.76,North,-999,0.0,0.0,40,0.00,,,-99.99,FreeWX 2.04,2013-05-23 08:06:00,
2013-05-23 02:16:00,36.9,14.9,29.76,North,-999,0.0,0.0,40,0.00,,,-99.99,FreeWX 2.04,2013-05-23 08:16:00,
2013-05-23 02:26:00,37.4,10.9,29.76,North,-999,0.0,0.0,33,0.00,,,-99.99,FreeWX 2.04,2013-05-23 08:26:00,
2013-05-23 02:36:00,37.8,15.1,29.79,WSW,250,2.0,6.3,39,0.00,,,-99.99,FreeWX 2.04,2013-05-23 08:36:00,
2013-05-23 02:46:00,37.6,15.4,29.79,SW,229,2.0,6.7,40,0.00,,,-99.99,FreeWX 2.04,2013-05-23 08:46:00,
2013-05-23 02:56:00,37.4,15.8,29.79,WSW,237,3.0,7.8,41,0.00,,,-99.99,FreeWX 2.04,2013-05-23 08:56:00,
2013-05-23 03:06:00,37.0,16.7,29.79,SW,234,2.0,7.4,43,0.00,,,-99.99,FreeWX 2.04,2013-05-23 09:06:00,
2013-05-23 03:16:00,36.9,17.1,29.79,SW,222,1.0,5.8,44,0.00,,,-99.99,FreeWX 2.04,2013-05-23 09:16:00,
2013-05-23 03:26:00,36.7,16.3,29.79,SW,220,3.0,6.9,43,0.00,,,-99.99,FreeWX 2.04,2013-05-23 09:26:00,
2013-05-23 03:36:00,36.5,16.2,29.79,SSW,212,1.0,5.8,43,0.00,,,-99.99,FreeWX 2.04,2013-05-23 09:36:00,
2013-05-23 03:46:00,36.3,16.5,29.79,SW,225,2.0,11.6,44,0.00,,,-99.99,FreeWX 2.04,2013-05-23 09:46:00,
2013-05-23 03:56:00,36.1,16.9,29.79,SW,220,2.0,6.3,45,0.00,,,-99.99,FreeWX 2.04,2013-05-23 09:56:00,
2013-05-23 04:06:00,36.1,17.4,29.79,SW,230,2.0,7.4,46,0.00,,,-99.99,FreeWX 2.04,2013-05-23 10:06:00,
2013-05-23 04:16:00,36.3,18.0,29.79,SW,223,1.0,4.9,47,0.00,,,-99.99,FreeWX 2.04,2013-05-23 10:16:00,
2013-05-23 04:26:00,36.1,18.0,29.82,SW,227,2.0,6.3,47,0.00,,,-99.99,FreeWX 2.04,2013-05-23 10:26:00,
2013-05-23 04:36:00,36.0,17.2,29.82,SW,235,3.0,6.3,46,0.00,,,-99.99,FreeWX 2.04,2013-05-23 10:36:00,
2013-05-23 04:46:00,36.0,17.8,29.82,SW,228,2.0,6.3,47,0.00,,,-99.99,FreeWX 2.04,2013-05-23 10:46:00,
2013-05-23 04:56:00,35.8,17.6,29.82,WSW,238,2.0,6.7,47,0.00,,,-99.99,FreeWX 2.04,2013-05-23 10:56:00,
2013-05-23 05:06:00,35.8,18.0,29.82,SW,227,1.0,6.3,48,0.00,,,-99.99,FreeWX 2.04,2013-05-23 11:06:00,
2013-05-23 05:16:00,35.8,17.1,29.82,North,-999,0.0,4.0,46,0.00,,,-99.99,FreeWX 2.04,2013-05-23 11:16:00,
2013-05-23 05:26:00,35.8,17.6,29.82,SSE,166,2.0,5.4,47,0.00,,,-99.99,FreeWX 2.04,2013-05-23 11:26:00,
2013-05-23 05:36:00,35.8,17.6,29.82,SE,133,2.0,5.8,47,0.00,,,-99.99,FreeWX 2.04,2013-05-23 11:36:00,
2013-05-23 05:46:00,35.6,18.3,29.82,North,-999,0.0,3.6,49,0.00,,,-99.99,FreeWX 2.04,2013-05-23 11:46:00,
2013-05-23 05:56:00,35.6,18.3,29.82,North,-999,0.0,5.4,49,0.00,,,-99.99,FreeWX 2.04,2013-05-23 11:56:00,
2013-05-23 06:06:00,35.8,16.0,29.82,WNW,282,2.0,6.3,44,0.00,,,-99.99,FreeWX 2.04,2013-05-23 12:06:00,
2013-05-23 06:16:00,35.8,17.6,29.82,North,-999,0.0,0.0,47,0.00,,,-99.99,FreeWX 2.04,2013-05-23 12:16:00,
2013-05-23 06:26:00,35.4,18.1,29.82,North,-999,0.0,0.0,49,0.00,,,-99.99,FreeWX 2.04,2013-05-23 12:26:00,
2013-05-23 06:36:00,35.1,18.9,29.82,North,-999,0.0,2.7,51,0.00,,,-99.99,FreeWX 2.04,2013-05-23 12:36:00,
2013-05-23 06:46:00,35.4,18.7,29.82,North,-999,0.0,0.0,50,0.00,,,-99.99,FreeWX 2.04,2013-05-23 12:46:00,
2013-05-23 06:56:00,35.6,18.9,29.79,NW,307,1.0,5.8,50,0.00,,,-99.99,FreeWX 2.04,2013-05-23 12:56:00,
2013-05-23 07:06:00,36.1,19.4,29.79,ESE,121,4.0,6.3,50,0.00,,,-99.99,FreeWX 2.04,2013-05-23 13:06:00,
2013-05-23 07:16:00,36.1,18.3,29.79,ESE,114,3.0,6.3,48,0.00,,,-99.99,FreeWX 2.04,2013-05-23 13:16:00,
2013-05-23 07:26:00,36.5,17.8,29.79,SE,127,4.0,6.7,46,0.00,,,-99.99,FreeWX 2.04,2013-05-23 13:26:00,
2013-05-23 07:36:00,37.0,17.8,29.79,SE,127,2.0,5.4,45,0.00,,,-99.99,FreeWX 2.04,2013-05-23 13:36:00,
2013-05-23 07:46:00,37.4,17.4,29.79,North,-999,0.0,5.4,44,0.00,,,-99.99,FreeWX 2.04,2013-05-23 13:46:00,
2013-05-23 07:56:00,38.1,17.6,29.79,SE,126,3.0,5.8,43,0.00,,,-99.99,FreeWX 2.04,2013-05-23 13:56:00,
2013-05-23 08:06:00,38.5,17.4,29.79,North,-999,0.0,3.6,42,0.00,,,-99.99,FreeWX 2.04,2013-05-23 14:06:00,
2013-05-23 08:16:00,38.8,17.8,29.79,North,-999,0.0,2.7,42,0.00,,,-99.99,FreeWX 2.04,2013-05-23 14:16:00,
2013-05-23 08:26:00,39.2,17.4,29.79,North,-999,0.0,0.0,41,0.00,,,-99.99,FreeWX 2.04,2013-05-23 14:26:00,
2013-05-23 08:36:00,38.5,19.6,29.79,NNW,344,3.0,6.7,46,0.00,,,-99.99,FreeWX 2.04,2013-05-23 14:36:00,
2013-05-23 08:46:00,38.3,20.8,29.79,NW,324,5.0,6.9,49,0.00,,,-99.99,FreeWX 2.04,2013-05-23 14:46:00,
2013-05-23 08:56:00,38.8,18.9,29.79,NW,318,1.0,6.3,44,0.00,,,-99.99,FreeWX 2.04,2013-05-23 14:56:00,
2013-05-23 09:06:00,39.4,20.8,29.79,North,-999,0.0,4.9,47,0.00,,,-99.99,FreeWX 2.04,2013-05-23 15:06:00,
2013-05-23 09:16:00,39.6,18.9,29.79,North,-999,0.0,4.5,43,0.00,,,-99.99,FreeWX 2.04,2013-05-23 15:16:00,
2013-05-23 09:26:00,40.6,18.1,29.79,North,-999,0.0,3.1,40,0.00,,,-99.99,FreeWX 2.04,2013-05-23 15:26:00,
2013-05-23 09:36:00,42.8,19.0,29.79,North,-999,0.0,4.0,38,0.00,,,-99.99,FreeWX 2.04,2013-05-23 15:36:00,
2013-05-23 09:46:00,43.9,19.9,29.79,North,-999,0.0,4.0,38,0.00,,,-99.99,FreeWX 2.04,2013-05-23 15:46:00,
2013-05-23 09:56:00,44.6,19.9,29.79,North,-999,0.0,4.5,37,0.00,,,-99.99,FreeWX 2.04,2013-05-23 15:56:00,
2013-05-23 10:06:00,45.7,20.8,29.79,NNW,336,2.0,6.3,37,0.00,,,-99.99,FreeWX 2.04,2013-05-23 16:06:00,
2013-05-23 10:16:00,46.0,17.1,29.79,NW,309,3.0,6.9,31,0.00,,,-99.99,FreeWX 2.04,2013-05-23 16:16:00,
2013-05-23 10:26:00,46.0,20.7,29.79,NW,320,4.0,6.9,36,0.00,,,-99.99,FreeWX 2.04,2013-05-23 16:26:00,
2013-05-23 10:36:00,46.0,19.9,29.76,NNW,332,4.0,7.4,35,0.00,,,-99.99,FreeWX 2.04,2013-05-23 16:36:00,
2013-05-23 10:46:00,47.1,22.3,29.76,NNW,333,3.0,6.9,37,0.00,,,-99.99,FreeWX 2.04,2013-05-23 16:46:00,
2013-05-23 10:56:00,47.3,21.0,29.76,NW,317,3.0,6.7,35,0.00,,,-99.99,FreeWX 2.04,2013-05-23 16:56:00,
2013-05-23 11:06:00,48.9,23.7,29.76,NNW,339,3.0,6.9,37,0.00,,,-99.99,FreeWX 2.04,2013-05-23 17:06:00,
2013-05-23 11:16:00,49.8,21.9,29.76,NNW,327,3.0,7.8,33,0.00,,,-99.99,FreeWX 2.04,2013-05-23 17:16:00,
2013-05-23 11:26:00,50.2,17.4,29.76,NW,323,4.0,8.3,27,0.00,,,-99.99,FreeWX 2.04,2013-05-23 17:26:00,
2013-05-23 11:36:00,50.7,17.1,29.76,NNW,343,5.0,10.1,26,0.00,,,-99.99,FreeWX 2.04,2013-05-23 17:36:00,
2013-05-23 11:46:00,51.6,17.8,29.76,NNW,330,5.0,11.0,26,0.00,,,-99.99,FreeWX 2.04,2013-05-23 17:46:00,
2013-05-23 11:56:00,52.5,15.8,29.76,NNW,345,4.0,8.7,23,0.00,,,-99.99,FreeWX 2.04,2013-05-23 17:56:00,
2013-05-23 12:06:00,53.1,18.1,29.74,North,356,5.0,8.7,25,0.00,,,-99.99,FreeWX 2.04,2013-05-23 18:06:00,
2013-05-23 12:16:00,53.1,16.3,29.74,NNW,338,4.0,11.0,23,0.00,,,-99.99,FreeWX 2.04,2013-05-23 18:16:00,
2013-05-23 12:26:00,54.0,19.0,29.74,NNW,348,4.0,6.9,25,0.00,,,-99.99,FreeWX 2.04,2013-05-23 18:26:00,
2013-05-23 12:36:00,54.7,16.5,29.74,NNW,341,4.0,11.2,22,0.00,,,-99.99,FreeWX 2.04,2013-05-23 18:36:00,
2013-05-23 12:46:00,54.7,19.6,29.74,NW,318,6.0,9.6,25,0.00,,,-99.99,FreeWX 2.04,2013-05-23 18:46:00,
2013-05-23 12:56:00,55.6,20.3,29.74,WNW,303,4.0,7.4,25,0.00,,,-99.99,FreeWX 2.04,2013-05-23 18:56:00,
2013-05-23 13:06:00,55.9,21.6,29.74,NNW,331,6.0,11.0,26,0.00,,,-99.99,FreeWX 2.04,2013-05-23 19:06:00,
2013-05-23 13:16:00,55.2,19.9,29.74,NNW,339,6.0,9.6,25,0.00,,,-99.99,FreeWX 2.04,2013-05-23 19:16:00,
2013-05-23 13:26:00,56.8,20.5,29.74,North,1,6.0,12.5,24,0.00,,,-99.99,FreeWX 2.04,2013-05-23 19:26:00,
2013-05-23 13:36:00,57.7,19.2,29.74,NNW,342,6.0,11.0,22,0.00,,,-99.99,FreeWX 2.04,2013-05-23 19:36:00,
2013-05-23 13:46:00,57.9,16.0,29.74,NNW,347,6.0,11.2,19,0.00,,,-99.99,FreeWX 2.04,2013-05-23 19:46:00,
2013-05-23 13:56:00,59.2,22.5,29.74,NNW,335,6.0,12.5,24,0.00,,,-99.99,FreeWX 2.04,2013-05-23 19:56:00,
2013-05-23 14:06:00,60.8,11.3,29.71,NNW,333,4.0,8.3,14,0.00,,,-99.99,FreeWX 2.04,2013-05-23 20:06:00,
2013-05-23 14:16:00,63.9,12.0,29.71,SSW,196,4.0,10.1,13,0.00,,,-99.99,FreeWX 2.04,2013-05-23 20:16:00,
2013-05-23 14:26:00,64.2,12.4,29.71,South,186,6.0,16.3,13,0.00,,,-99.99,FreeWX 2.04,2013-05-23 20:26:00,
2013-05-23 14:36:00,64.0,12.2,29.71,SSW,201,6.0,13.9,13,0.00,,,-99.99,FreeWX 2.04,2013-05-23 20:36:00,
2013-05-23 14:46:00,64.2,12.4,29.71,South,177,7.0,13.0,13,0.00,,,-99.99,FreeWX 2.04,2013-05-23 20:46:00,
2013-05-23 14:56:00,65.5,11.5,29.71,South,169,8.0,15.9,12,0.00,,,-99.99,FreeWX 2.04,2013-05-23 20:56:00,
2013-05-23 15:06:00,66.7,12.6,29.71,SSW,209,6.0,13.4,12,0.00,,,-99.99,FreeWX 2.04,2013-05-23 21:06:00,
2013-05-23 15:16:00,66.4,12.2,29.71,SW,219,5.0,13.0,12,0.00,,,-99.99,FreeWX 2.04,2013-05-23 21:16:00,
2013-05-23 15:26:00,65.3,13.3,29.71,SW,230,5.0,11.0,13,0.00,,,-99.99,FreeWX 2.04,2013-05-23 21:26:00,
2013-05-23 15:36:00,63.3,11.7,29.71,SW,231,3.0,8.7,13,0.00,,,-99.99,FreeWX 2.04,2013-05-23 21:36:00,
2013-05-23 15:47:00,62.8,11.3,29.71,SW,232,5.0,9.6,13,0.00,,,-99.99,FreeWX 2.04,2013-05-23 21:47:00,
2013-05-23 15:57:00,62.1,10.6,29.71,SW,219,4.0,8.3,13,0.00,,,-99.99,FreeWX 2.04,2013-05-23 21:57:00,
2013-05-23 16:07:00,61.0,6.1,29.71,SW,219,3.0,10.1,11,0.00,,,-99.99,FreeWX 2.04,2013-05-23 22:07:00,
2013-05-23 16:17:00,61.2,6.3,29.71,SSW,206,1.0,5.4,11,0.00,,,-99.99,FreeWX 2.04,2013-05-23 22:17:00,
2013-05-23 16:27:00,57.9,13.5,29.71,WNW,300,4.0,12.1,17,0.00,,,-99.99,FreeWX 2.04,2013-05-23 22:27:00,
2013-05-23 16:37:00,57.2,18.7,29.71,NW,313,7.0,12.5,22,0.00,,,-99.99,FreeWX 2.04,2013-05-23 22:37:00,
2013-05-23 16:47:00,57.4,15.4,29.71,West,280,5.0,9.2,19,0.00,,,-99.99,FreeWX 2.04,2013-05-23 22:47:00,
2013-05-23 16:57:00,57.2,12.7,29.71,NW,321,5.0,9.6,17,0.00,,,-99.99,FreeWX 2.04,2013-05-23 22:57:00,
2013-05-23 17:07:00,58.3,9.3,29.71,WSW,258,3.0,7.8,14,0.00,,,-99.99,FreeWX 2.04,2013-05-23 23:07:00,
2013-05-23 17:17:00,58.5,9.5,29.71,SW,216,1.0,5.8,14,0.00,,,-99.99,FreeWX 2.04,2013-05-23 23:17:00,
2013-05-23 17:27:00,58.5,9.5,29.71,North,-999,0.0,5.4,14,0.00,,,-99.99,FreeWX 2.04,2013-05-23 23:27:00,
2013-05-23 17:37:00,58.3,9.3,29.71,SSE,157,2.0,7.8,14,0.00,,,-99.99,FreeWX 2.04,2013-05-23 23:37:00,
2013-05-23 17:47:00,58.5,6.1,29.71,South,182,4.0,8.7,12,0.00,,,-99.99,FreeWX 2.04,2013-05-23 23:47:00,
2013-05-23 17:57:00,57.6,8.8,29.74,SSE,163,3.0,7.4,14,0.00,,,-99.99,FreeWX 2.04,2013-05-23 23:57:00,
2013-05-23 18:07:00,57.9,5.7,29.74,SSE,155,5.0,10.1,12,0.00,,,-99.99,FreeWX 2.04,2013-05-24 00:07:00,
2013-05-23 18:17:00,57.7,5.5,29.74,SSE,168,6.0,12.1,12,0.00,,,-99.99,FreeWX 2.04,2013-05-24 00:17:00,
2013-05-23 18:27:00,57.0,8.2,29.74,SSW,196,1.0,10.5,14,0.00,,,-99.99,FreeWX 2.04,2013-05-24 00:27:00,
2013-05-23 18:37:00,55.9,9.0,29.74,WSW,256,2.0,7.8,15,0.00,,,-99.99,FreeWX 2.04,2013-05-24 00:37:00,
2013-05-23 18:47:00,53.6,19.6,29.74,WNW,296,4.0,7.8,26,0.00,,,-99.99,FreeWX 2.04,2013-05-24 00:47:00,
2013-05-23 18:57:00,52.2,21.7,29.74,NNW,330,5.0,7.8,30,0.00,,,-99.99,FreeWX 2.04,2013-05-24 00:57:00,
2013-05-23 19:07:00,52.0,21.6,29.74,NNW,335,6.0,11.6,30,0.00,,,-99.99,FreeWX 2.04,2013-05-24 01:07:00,
2013-05-23 19:17:00,51.8,21.4,29.74,North,355,6.0,10.1,30,0.00,,,-99.99,FreeWX 2.04,2013-05-24 01:17:00,
2013-05-23 19:27:00,52.0,19.9,29.74,North,9,4.0,6.9,28,0.00,,,-99.99,FreeWX 2.04,2013-05-24 01:27:00,
2013-05-23 19:37:00,52.2,20.8,29.74,North,-999,0.0,5.4,29,0.00,,,-99.99,FreeWX 2.04,2013-05-24 01:37:00,
2013-05-23 19:47:00,52.5,20.3,29.74,WNW,284,1.0,4.9,28,0.00,,,-99.99,FreeWX 2.04,2013-05-24 01:47:00,
2013-05-23 19:57:00,52.2,22.5,29.74,North,-999,0.0,0.0,31,0.00,,,-99.99,FreeWX 2.04,2013-05-24 01:57:00,
2013-05-23 20:07:00,52.2,23.9,29.74,North,-999,0.0,4.5,33,0.00,,,-99.99,FreeWX 2.04,2013-05-24 02:07:00,
2013-05-23 20:17:00,51.4,23.4,29.74,North,-999,0.0,0.0,33,0.00,,,-99.99,FreeWX 2.04,2013-05-24 02:17:00,
2013-05-23 20:27:00,50.5,24.6,29.74,North,-999,0.0,0.0,36,0.00,,,-99.99,FreeWX 2.04,2013-05-24 02:27:00,
2013-05-23 20:37:00,50.2,25.0,29.76,North,-999,0.0,4.0,37,0.00,,,-99.99,FreeWX 2.04,2013-05-24 02:37:00,
2013-05-23 20:47:00,49.8,24.6,29.76,North,-999,0.0,0.0,37,0.00,,,-99.99,FreeWX 2.04,2013-05-24 02:47:00,
2013-05-23 20:57:00,49.8,19.6,29.76,North,-999,0.0,5.8,30,0.00,,,-99.99,FreeWX 2.04,2013-05-24 02:57:00,
2013-05-23 21:07:00,50.2,17.4,29.76,WSW,258,2.0,8.7,27,0.00,,,-99.99,FreeWX 2.04,2013-05-24 03:07:00,
2013-05-23 21:17:00,49.8,17.2,29.76,West,270,4.0,9.6,27,0.00,,,-99.99,FreeWX 2.04,2013-05-24 03:17:00,
2013-05-23 21:27:00,48.2,14.9,29.76,WSW,244,5.0,12.5,26,0.00,,,-99.99,FreeWX 2.04,2013-05-24 03:27:00,
2013-05-23 21:37:00,46.9,12.0,29.79,WSW,243,4.0,9.6,24,0.00,,,-99.99,FreeWX 2.04,2013-05-24 03:37:00,
2013-05-23 21:47:00,46.0,11.3,29.79,SW,236,6.0,12.5,24,0.00,,,-99.99,FreeWX 2.04,2013-05-24 03:47:00,
2013-05-23 21:57:00,45.5,11.7,29.79,WSW,239,4.0,9.6,25,0.00,,,-99.99,FreeWX 2.04,2013-05-24 03:57:00,
2013-05-23 22:07:00,45.0,11.3,29.79,SW,227,4.0,12.1,25,0.00,,,-99.99,FreeWX 2.04,2013-05-24 04:07:00,
2013-05-23 22:17:00,44.6,8.1,29.79,SSW,201,2.0,7.4,22,0.00,,,-99.99,FreeWX 2.04,2013-05-24 04:17:00,
2013-05-23 22:27:00,44.2,7.9,29.82,SW,217,2.0,9.2,22,0.00,,,-99.99,FreeWX 2.04,2013-05-24 04:27:00,
2013-05-23 22:37:00,44.1,7.7,29.82,SW,229,1.0,6.7,22,0.00,,,-99.99,FreeWX 2.04,2013-05-24 04:37:00,
2013-05-23 22:47:00,44.2,7.9,29.82,SW,217,2.0,5.8,22,0.00,,,-99.99,FreeWX 2.04,2013-05-24 04:47:00,
2013-05-23 22:57:00,44.2,5.7,29.85,SW,218,2.0,9.2,20,0.00,,,-99.99,FreeWX 2.04,2013-05-24 04:57:00,
2013-05-23 23:07:00,44.2,5.7,29.85,WSW,239,2.0,9.2,20,0.00,,,-99.99,FreeWX 2.04,2013-05-24 05:07:00,
2013-05-23 23:17:00,44.1,5.5,29.85,SW,236,1.0,6.3,20,0.00,,,-99.99,FreeWX 2.04,2013-05-24 05:17:00,
2013-05-23 23:27:00,43.9,5.4,29.85,SW,223,1.0,5.8,20,0.00,,,-99.99,FreeWX 2.04,2013-05-24 05:27:00,
2013-05-23 23:37:00,43.5,8.2,29.85,WSW,254,2.0,8.7,23,0.00,,,-99.99,FreeWX 2.04,2013-05-24 05:37:00,
2013-05-23 23:47:00,41.9,12.7,29.85,SW,233,4.0,10.1,30,0.00,,,-99.99,FreeWX 2.04,2013-05-24 05:47:00,
2013-05-23 23:57:00,40.6,17.6,29.88,SW,227,5.0,11.2,39,0.00,,,-99.99,FreeWX 2.04,2013-05-24 05:57:00,